Voltar ao catálogo

STARLINK-6264

AtivoComunicaçõesVLEO
NORAD 56429·PAYLOAD·🇺🇸 United States

Lançado May 4, 2023 de Cape Canaveral Space Force Station

Loading…

Próximas Passagens (próximas 24 horas)

TLE

AtualizadoSource: CelesTrak SupGP

Época: Sep 14, 2026, 20:58 UTC

1 56429C 23061BH  26257.87409722 -.00004196  00000+0 -15199-3 0  2575
2 56429  42.9998 191.4187 0001396 256.7902 319.7651 15.27580595    10

Acompanhe STARLINK-6264 em tempo real com AllMySat

Download on the App Store